User: anonymous   Login
Location: Unspecified
(0.0000°N, 0.0000°E)
Time: 06:44:27
(UTC+00:00)
Language:

Kosmos-2310 - Orbit

View from above orbital plane
View from above orbital plane
View from above satellite
View from above satellite

Ground track
Ground track

The orbit data is extracted from the following two-line orbital elements,

1 23526U 95012A   18202.34412274  .00000019  00000-0  39275-5 0  9996
2 23526  82.9466 116.4665 0022777  33.2197 106.1965 13.71870563168187
Epoch (UTC): 21 July 2018 08:15:32
Eccentricity: 0.0022777
inclination: 82.9466°
perigee height: 976 km
apogee height: 1009 km
right ascension of ascending node: 116.4665°
argument of perigee: 33.2197°
revolutions per day: 13.71870563
mean anomaly at epoch: 106.1965°
orbit number at epoch: 16818

The dashed part of the orbit path shows where the satellite is in the earth's shadow,  

DLR